[[{"header":{"parameterUnit":"m.s-1","parameterCategory":1,"la1":30.2991,"la2":30.254,"lo1":-89.0895,"lo2":-89.0444,"dy":0.0017,"dx":0.0017,"nx":28,"ny":28,"refTime":"2025-04-28T03:00:00:Z","depth":0,"parameterNumber":2,"parameterNumberName":"U-component_of_WINDS"},"data":[0,0,0,0,0,0,0,0,0,0,0,0,0,0,0,0,0,0,0,0,0,0,0,0,0,0,0,0,0,0,0,0,0,0,0,0,0,0,0,0,0,0,0,0,0,0,0,0,0,0,0,0,0,0,0,0,0,0,-2.1161,-2.1162,0,-2.1177,-2.1177,-2.1178,-2.1147,-2.1146,-2.1145,-2.1144,-2.1161,-2.1162,-2.1164,0,0,0,0,0,0,0,0,0,0,0,0,0,-2.1105,-2.1106,-2.1161,-2.1162,-2.1162,-2.1177,-2.1177,-2.1178,-2.1147,-2.1146,-2.1145,-2.1144,-2.116,-2.1162,-2.1164,0,0,0,0,0,0,0,0,0,0,0,0,0,-2.1126,-2.1107,-2.1161,-2.1148,-2.1147,-2.1177,-2.1177,-2.1178,-2.1148,-2.1146,-2.1145,-2.1143,-2.116,-2.1162,-2.1164,-2.1207,0,0,-2.117,-2.1171,0,0,0,0,0,0,0,0,-2.1125,-2.1128,-2.115,-2.1149,-2.1148,-2.1159,-2.1164,-2.1188,-2.1148,-2.1148,-2.1144,-2.1142,-2.1161,-2.1163,-2.117,-2.1208,-2.1209,-2.1171,-2.1172,-2.1173,-2.1173,0,0,0,0,0,0,0,-2.1124,-2.1127,-2.1168,-2.115,-2.1149,-2.1142,-2.1143,-2.1168,-2.1163,-2.1147,-2.1145,-2.1148,-2.1161,-2.1168,-2.117,-2.1209,-2.1171,-2.1172,-2.1174,-2.1174,-2.1283,-2.1285,0,0,0,0,0,0,-2.1124,-2.1126,-2.1167,-2.1168,-2.1133,-2.1144,-2.1146,-2.1157,-2.1162,-2.1162,-2.1149,-2.1146,-2.1165,-2.1167,-2.117,-2.1221,-2.1173,-2.1175,-2.1176,-2.1282,-2.1284,-2.1286,0,0,0,0,0,0,-2.1123,-2.1128,-2.1166,-2.1147,-2.1151,-2.1147,-2.116,-2.1158,-2.1165,-2.1163,-2.1162,-2.1157,-2.1164,-2.1167,-2.1198,-2.1221,-2.1176,-2.1178,-2.128,-2.1282,-2.1285,-2.1323,0,0,0,0,0,0,-2.1121,-2.1127,-2.1144,-2.1147,-2.1152,-2.1194,-2.1161,-2.1159,-2.1169,-2.1165,-2.1171,-2.117,-2.1163,-2.1195,-2.12,-2.1223,-2.1179,-2.1278,-2.1281,-2.1284,-2.1319,-2.1326,-2.1332,0,0,0,0,0,-2.1119,-2.1154,-2.1145,-2.115,-2.1172,-2.1195,-2.1198,-2.1189,-2.1171,-2.1187,-2.1186,-2.117,-2.1218,-2.1199,-2.1204,-2.1228,-2.1276,-2.128,-2.1284,-2.1317,-2.1325,-2.1332,0,0,0,0,0,0,-2.1153,-2.1154,-2.1144,-2.1181,-2.1188,-2.119,-2.121,-2.1198,-2.1211,-2.1207,-2.1195,-2.1197,-2.123,-2.1232,-2.1211,-2.127,-2.1244,-2.1249,-2.1267,-2.1275,-2.1281,-2.128,-2.1181,0,0,0,0,0,-2.1165,-2.1183,-2.1183,-2.1216,-2.122,-2.1215,-2.1224,-2.1217,-2.1224,-2.1227,-2.1228,-2.1236,-2.1253,-2.1264,-2.128,-2.132,-2.132,-2.1339,-2.1345,-2.135,-2.1355,-2.1376,-2.1384,-2.1298,-2.1298,-2.1298,0,0,-2.1189,-2.1192,-2.1205,-2.1223,-2.1228,-2.1247,-2.1218,-2.124,-2.1254,-2.123,-2.1259,-2.1261,-2.1269,-2.1305,-2.132,-2.1307,-2.1379,-2.1355,-2.1359,-2.1361,-2.138,-2.1389,-2.1396,-2.13,-2.13,-2.1299,0,0,-2.1244,-2.1248,-2.1275,-2.1281,-2.1289,-2.1285,-2.1292,-2.1296,-2.1295,-2.1324,-2.1307,-2.1324,-2.1353,-2.136,-2.1367,-2.1424,-2.141,-2.1429,-2.1462,-2.1483,-2.149,-2.1496,-2.1516,-2.1523,-2.1434,-2.1434,-2.1434,0,-2.1273,-2.1302,-2.1291,-2.1314,-2.1322,-2.1302,-2.133,-2.1336,-2.1348,-2.1355,-2.134,-2.1376,-2.138,-2.1417,-2.1431,-2.1437,-2.1444,-2.1428,-2.149,-2.1495,-2.1501,-2.152,-2.1527,-2.1436,-2.1436,-2.1436,-2.1435,0,-2.1337,-2.1357,-2.1379,-2.1391,-2.1402,-2.1427,-2.142,-2.1433,-2.1424,-2.1422,-2.1452,-2.1456,-2.1472,-2.148,-2.1472,-2.1516,-2.1507,-2.1492,-2.1465,-2.1511,-2.1529,-2.1536,-2.1439,-2.1439,-2.1438,-2.1437,0,0,-2.1413,-2.1419,-2.1427,-2.1432,-2.144,-2.1455,-2.148,-2.1495,-2.1505,-2.1515,-2.1535,-2.156,-2.1546,-2.1554,-2.1546,-2.1565,-2.1609,-2.1546,-2.1546,-2.1557,-2.1657,-2.1669,-2.1677,-2.16,-2.1601,-2.1602,-2.1656,0,-2.1467,-2.1508,-2.15,-2.1541,-2.1559,-2.154,-2.1561,-2.1568,-2.1567,-2.1583,-2.1581,-2.1599,-2.1579,-2.1583,-2.1601,-2.16,-2.1629,-2.1596,-2.1618,-2.1619,-2.1616,-2.1687,-2.1699,-2.175,-2.1663,-2.1664,-2.1665,0,-2.1535,-2.1547,-2.1589,-2.1593,-2.1601,-2.162,-2.1633,-2.1648,-2.1656,-2.1654,-2.1663,-2.1652,-2.1676,-2.165,-2.1683,-2.1661,-2.167,-2.1671,-2.1673,-2.1674,-2.1645,-2.1689,-2.1766,-2.1773,-2.1676,-2.1675,-2.1674,0,-2.1585,-2.1612,-2.1641,-2.1646,-2.1652,-2.1666,-2.1669,-2.1674,-2.1684,-2.1696,-2.1702,-2.1717,-2.1724,-2.1736,-2.1729,-2.1711,-2.1764,-2.1737,-2.1762,-2.1763,-2.1774,-2.1773,-2.1852,-2.1781,-2.1781,-2.178,-2.178,0,-2.1646,-2.1673,-2.1663,-2.1681,-2.1711,-2.1701,-2.173,-2.1731,-2.1736,-2.1754,-2.1739,-2.1756,-2.1746,-2.1762,-2.1757,-2.1786,-2.179,-2.1788,-2.1787,-2.1789,-2.179,-2.1795,-2.1791,-2.1782,-2.1782,-2.1782,-2.1781,0,-2.1707,-2.1702,-2.1732,-2.1735,-2.1736,-2.1758,-2.176,-2.1777,-2.1775,-2.1797,-2.1802,-2.1799,-2.1817,-2.1811,-2.1831,-2.1828,-2.1864,-2.1858,-2.1861,-2.1859,-2.1885,-2.1882,-2.1969,-2.198,-2.1902,-2.1903,-2.1904,0,-2.1746,-2.1766,-2.1771,-2.1781,-2.1785,-2.1803,-2.1812,-2.1803,-2.1814,-2.1824,-2.184,-2.1857,-2.187,-2.19,-2.1899,-2.1914,-2.1908,-2.1938,-2.191,-2.1913,-2.1908,-2.1907,-2.1909,-2.1943,-2.1944,-2.1945,-2.1945,0,-2.1815,-2.1811,-2.1826,-2.1839,-2.1851,-2.1862,-2.1871,-2.1881,-2.1872,-2.1885,-2.1903,-2.1914,-2.1934,-2.1951,-2.1965,-2.1968,-2.1955,-2.1954,-2.196,-2.1963,-2.1964,-2.1964,-2.1875,-2.1952,-2.1951,-2.1951,-2.195,-2.195,-2.1866,-2.1882,-2.1888,-2.1905,-2.1911,-2.192,-2.1935,-2.1935,-2.195,-2.1965,-2.1959,-2.1981,-2.1987,-2.2005,-2.201,-2.2026,-2.2015,-2.2025,-2.2027,-2.2029,-2.2032,-2.1962,-2.2029,-2.2029,-2.2028,-2.2028,-2.2028,0,-2.1933,-2.1936,-2.1952,-2.1965,-2.1978,-2.1965,-2.1974,-2.1986,-2.2005,-2.2012,-2.2025,-2.2046,-2.2063,-2.2063,-2.2079,-2.2092,-2.2086,-2.2096,-2.2095,-2.2096,-2.2042,-2.2034,-2.21,-2.21,-2.21,-2.21,-2.21,-2.21,-2.197,-2.1998,-2.1995,-2.2026,-2.2028,-2.2049,-2.2055,-2.2063,-2.2069,-2.2093,-2.2107,-2.2107,-2.2112,-2.2127,-2.2142,-2.2142,-2.2148,-2.216,-2.2157,-2.2107,-2.2099,-2.2093,-2.2085,-2.2161,-2.2161,-2.221,-2.221,-2.221]},{"header":{"parameterUnit":"m.s-1","parameterCategory":1,"la1":30.2991,"la2":30.254,"lo1":-89.0895,"lo2":-89.0444,"dy":0.0017,"dx":0.0017,"nx":28,"ny":28,"refTime":"2025-04-28T03:00:00:Z","depth":0,"parameterNumber":3,"parameterNumberName":"V-component_of_WINDS"},"data":[0,0,0,0,0,0,0,0,0,0,0,0,0,0,0,0,0,0,0,0,0,0,0,0,0,0,0,0,0,0,0,0,0,0,0,0,0,0,0,0,0,0,0,0,0,0,0,0,0,0,0,0,0,0,0,0,0,0,2.6722,2.6722,0,2.6678,2.6678,2.6677,2.6621,2.662,2.6619,2.6619,2.6571,2.6571,2.6571,0,0,0,0,0,0,0,0,0,0,0,0,0,2.6757,2.6757,2.6722,2.6722,2.6721,2.6678,2.6678,2.6677,2.6621,2.662,2.6619,2.6618,2.6572,2.6571,2.6571,0,0,0,0,0,0,0,0,0,0,0,0,0,2.673,2.6757,2.6723,2.6688,2.6685,2.6678,2.6678,2.6677,2.6622,2.662,2.6619,2.6618,2.6572,2.6571,2.657,2.6593,0,0,2.6569,2.6568,0,0,0,0,0,0,0,0,2.6732,2.6729,2.6694,2.6691,2.6687,2.6654,2.6672,2.6649,2.6622,2.6646,2.6618,2.6617,2.66,2.6597,2.6591,2.6591,2.6589,2.6568,2.6568,2.6568,2.6568,0,0,0,0,0,0,0,2.6734,2.6731,2.6705,2.6693,2.6689,2.6675,2.6669,2.6668,2.6631,2.6643,2.6639,2.6635,2.6598,2.6592,2.659,2.6588,2.6568,2.6568,2.6568,2.6567,2.6604,2.6606,0,0,0,0,0,0,2.6741,2.6733,2.6706,2.6704,2.6707,2.6675,2.6669,2.6666,2.6631,2.6624,2.6636,2.6632,2.6594,2.6591,2.6588,2.6612,2.6568,2.6567,2.6567,2.6603,2.6605,2.6606,0,0,0,0,0,0,2.6742,2.6739,2.6708,2.6717,2.6712,2.6676,2.6672,2.6666,2.666,2.6625,2.6618,2.6637,2.6593,2.6589,2.6592,2.661,2.6567,2.6566,2.6601,2.6603,2.6605,2.6661,0,0,0,0,0,0,2.6743,2.674,2.6749,2.6718,2.6712,2.6714,2.6674,2.6666,2.6659,2.6654,2.6624,2.6618,2.6591,2.6594,2.6592,2.6608,2.6566,2.66,2.6602,2.6605,2.6658,2.6665,2.6671,0,0,0,0,0,2.6745,2.6766,2.6749,2.6747,2.6722,2.6715,2.6712,2.6681,2.6661,2.6669,2.6647,2.6619,2.6608,2.6595,2.6592,2.6608,2.6598,2.6602,2.6604,2.6655,2.6663,2.6671,0,0,0,0,0,0,2.6799,2.6761,2.6742,2.6754,2.6739,2.6706,2.6715,2.6691,2.668,2.6676,2.6638,2.6631,2.664,2.6624,2.661,2.6628,2.6599,2.6602,2.6638,2.6646,2.6653,2.6656,2.6565,0,0,0,0,0,2.6813,2.6811,2.6778,2.6791,2.6784,2.6751,2.6747,2.6725,2.6707,2.67,2.6677,2.666,2.6653,2.6649,2.664,2.6655,2.6648,2.6665,2.6672,2.6678,2.668,2.6687,2.6694,2.6616,2.6616,2.6616,0,0,2.684,2.6819,2.6821,2.6802,2.6787,2.6785,2.6746,2.6746,2.6744,2.6699,2.6701,2.6685,2.6663,2.6673,2.6675,2.666,2.67,2.6681,2.6686,2.6686,2.6691,2.6698,2.6705,2.6618,2.6618,2.6618,0,0,2.689,2.6874,2.6884,2.687,2.6848,2.6826,2.6828,2.6799,2.6787,2.6788,2.6754,2.6751,2.674,2.6726,2.6717,2.6762,2.6736,2.676,2.6795,2.6802,2.6808,2.6813,2.6828,2.6835,2.6763,2.6763,2.6763,0,2.6927,2.6924,2.6892,2.6894,2.6886,2.6846,2.6855,2.6843,2.6819,2.6815,2.6798,2.6782,2.6765,2.677,2.6781,2.6776,2.6777,2.6763,2.681,2.6814,2.6819,2.6833,2.6839,2.6766,2.6765,2.6765,2.6765,0,2.6971,2.6969,2.6979,2.6958,2.6952,2.6958,2.6925,2.6923,2.6901,2.6881,2.6883,2.686,2.6846,2.6846,2.6825,2.6849,2.684,2.6817,2.6787,2.683,2.6843,2.6848,2.677,2.6769,2.6768,2.6767,0,0,2.7053,2.7014,2.7019,2.7008,2.6981,2.6979,2.6983,2.697,2.6968,2.6953,2.6955,2.6946,2.6925,2.6915,2.6892,2.6898,2.6934,2.6874,2.6873,2.6886,2.6958,2.6976,2.6983,2.6917,2.6918,2.6919,2.696,0,2.7098,2.7102,2.7073,2.7086,2.7083,2.7045,2.7048,2.7032,2.7013,2.7008,2.6986,2.6981,2.6953,2.6947,2.6951,2.6929,2.6948,2.6925,2.6917,2.6918,2.6924,2.6989,2.7008,2.7048,2.6965,2.6966,2.6966,0,2.715,2.7139,2.7151,2.7124,2.7121,2.7125,2.7111,2.7107,2.7087,2.7072,2.7062,2.7035,2.7036,2.7008,2.7008,2.6994,2.6988,2.6977,2.6978,2.6975,2.6945,2.6989,2.706,2.7066,2.6974,2.6974,2.6973,0,2.7209,2.7197,2.7202,2.7195,2.7163,2.7166,2.7153,2.7132,2.7126,2.7113,2.7109,2.7096,2.7089,2.708,2.705,2.7032,2.7054,2.7023,2.7041,2.7042,2.7047,2.7047,2.7119,2.7045,2.7045,2.7045,2.7044,0,2.7262,2.7271,2.7228,2.7232,2.7241,2.7207,2.7216,2.7199,2.7181,2.718,2.7146,2.7145,2.7106,2.7101,2.7078,2.7082,2.7079,2.7067,2.7061,2.707,2.7071,2.7066,2.7062,2.7046,2.7046,2.7045,2.7045,0,2.7329,2.7301,2.7305,2.7274,2.7267,2.7274,2.7248,2.725,2.7229,2.7228,2.7226,2.7193,2.7185,2.7155,2.7139,2.7124,2.7135,2.7123,2.7142,2.7138,2.7158,2.7156,2.7228,2.7235,2.7157,2.7158,2.7159,0,2.7364,2.737,2.7341,2.7338,2.7326,2.7322,2.7316,2.7283,2.7278,2.7256,2.726,2.725,2.724,2.723,2.7204,2.7192,2.7179,2.7205,2.7177,2.7186,2.7179,2.7179,2.7179,2.7211,2.7212,2.7213,2.7213,0,2.743,2.7416,2.7408,2.7397,2.739,2.7379,2.7366,2.7365,2.7328,2.7324,2.7316,2.7309,2.7294,2.7284,2.7268,2.7253,2.7227,2.7222,2.7226,2.7235,2.7246,2.724,2.7158,2.7221,2.722,2.722,2.7219,2.7219,2.7482,2.7485,2.7465,2.7458,2.7445,2.7433,2.7433,2.7413,2.7406,2.7391,2.7372,2.7367,2.7346,2.7322,2.731,2.7304,2.729,2.7295,2.7296,2.7298,2.7303,2.7247,2.7301,2.7301,2.7301,2.7301,2.73,0,2.7545,2.753,2.7524,2.7507,2.7502,2.7478,2.7462,2.7459,2.7455,2.7439,2.743,2.7421,2.7411,2.7385,2.7372,2.7373,2.7361,2.7371,2.737,2.7367,2.7316,2.7315,2.7381,2.7381,2.7381,2.7381,2.7381,2.7381,2.7578,2.7583,2.7566,2.7564,2.7549,2.7544,2.7537,2.7526,2.7512,2.7504,2.7496,2.7479,2.7458,2.7444,2.7434,2.7426,2.7423,2.7437,2.7426,2.7379,2.7371,2.7364,2.7362,2.7437,2.7437,2.7477,2.7477,2.7478]}]]